Regional Weather Roundup
Issued by NWS Little Rock, AR

Home | Current Version | Previous Version | Text Only | Print | Product List | Glossary On
Versions: 1 2 3 4 5 6 7 8 9 10 11 12 13 14 15 16 17 18 19 20 21 22 23 24 25 26 27 28 29 30 31 32 33 34 35 36 37 38 39 40 41 42 43 44 45 46 47 48 49 50
000
ASUS44 KLZK 232205
RWRLZK

WEATHER ROUNDUP FOR ARKANSAS
NATIONAL WEATHER SERVICE LITTLE ROCK AR
500 PM CDT SUN APR 23 2017

NOTE: "FAIR" INDICATES FEW OR NO CLOUDS BELOW 12,000 FEET WITH NO
SIGNIFICANT WEATHER AND/OR OBSTRUCTIONS TO VISIBILITY.

ARZ001-003-010-029-232300-
NORTHWEST ARKANSAS

CITY           SKY/WX    TMP DP  RH WIND       PRES   REMARKS
FAYETTEVILLE   SUNNY     67  39  35 N10G18    30.04F
FORT SMITH     SUNNY     73  34  23 NW14G20   30.01F
HARRISON       SUNNY     69  34  27 NW9       30.02F
BENTONVILLE    SUNNY     66  37  34 N5        30.07S
ROGERS         SUNNY     66  39  37 N7G16     30.06F
SILOAM SPGS    SUNNY     66  39  37 N10       30.06S
HIGHFILL       SUNNY     70  39  32 N10       30.05F
SPRINGDALE     SUNNY     68  39  34 NW9       30.07S
$$

ARZ004-005-016-232300-
NORTH CENTRAL ARKANSAS

CITY           SKY/WX    TMP DP  RH WIND       PRES   REMARKS
BATESVILLE     SUNNY    N/A N/A N/A NW10G16   29.95S
FLIPPIN        SUNNY    N/A N/A N/A NW12      29.97F
MTN HOME       SUNNY     71  30  21 VRB6      29.99F
$$

ARZ040-041-232300-
WEST CENTRAL ARKANSAS

CITY           SKY/WX    TMP DP  RH WIND       PRES   REMARKS
MENA           SUNNY     70  36  28 N6G16     30.01F
MOUNT IDA      SUNNY     74  38  27 VRB3      29.97F
$$

ARZ009-017-025-026-028-232300-
NORTHEAST ARKANSAS

CITY           SKY/WX    TMP DP  RH WIND       PRES   REMARKS
JONESBORO      SUNNY     69  39  33 N15G24    29.93S
NEWPORT        SUNNY     70  43  37 NE13      29.94S
WALNUT RIDGE   SUNNY     72  39  30 CALM      29.93F
BLYTHEVILLE    CLOUDY    65  50  58 NE16      29.92S
$$

ARZ022-023-033-042-044-232300-
CENTRAL ARKANSAS

CITY           SKY/WX    TMP DP  RH WIND       PRES   REMARKS
LITTLE ROCK    SUNNY     72  37  28 N16G24    29.95F
N LITTLE ROCK    N/A     71  40  32 N8G16     29.97S
JACKSONVILLE   SUNNY     73  40  29 NW9G21    29.94F
CONWAY           N/A     73  36  25 N14       29.94F
SEARCY         SUNNY     72  39  30 N13G20    29.95F
HOT SPRINGS    SUNNY     72  38  29 N8        29.97F
RUSSELLVILLE   SUNNY     73  35  25 N12       29.97F
$$

ARZ036-232300-
EAST ARKANSAS

CITY           SKY/WX    TMP DP  RH WIND       PRES   REMARKS
WEST MEMPHIS   CLOUDY    59  52  77 VRB5      29.93S
$$

ARZ050-053-066-070-073-232300-
SOUTHWEST ARKANSAS

CITY           SKY/WX    TMP DP  RH WIND       PRES   REMARKS
ARKADELPHIA    FAIR      70  42  36 N12       29.97F
CAMDEN         SUNNY     72  41  33 NW9G17    29.96S
TEXARKANA      SUNNY     71  45  39 NW7       29.98F
EL DORADO      SUNNY     71  45  39 NW13      29.96F
DE QUEEN       SUNNY     73  39  29 N9        29.97F
$$

ARZ056-057-069-232300-
SOUTHEAST ARKANSAS

CITY           SKY/WX    TMP DP  RH WIND       PRES   REMARKS
PINE BLUFF     SUNNY     69  42  37 N13       29.96S
STUTTGART      SUNNY     70  39  32 NW17      29.95S

$$





USA.gov is the U.S. government's official web portal to all federal, state and local government web resources and services.